Flag for Finland Weather past 2 weeks in Turku, Finland

Now
57 °F

Sunny.


Feels Like: 57 °F
Forecast: 48 / 68 °F
Wind: 2 mph from North

Location: Turku Airport

Current Time: Aug 30, 2015 at 9:17:19 AM

Latest Report: Aug 30, 2015 at 8:20 AM


Visibility: 10 mi

Pressure: 30.01 "Hg

Humidity: 94%

Dew point: 55 °F

Location of TurkuLocation

Historic Weather in Turku — Graph

°F

Turku temperature yesterday

Maximum temperature yesterday: 66 °F (at 1:50 PM)
Minimum temperature yesterday: 46 °F (at 5:20 AM)
Average temperature yesterday: 58 °F

Past Weeks' High & Low Weather Summary

 TemperatureHumidityPressure
High81 °F (Aug 25, 3:50 PM)100% (Aug 18, 3:50 AM)30.45 "Hg (Aug 18, 3:50 AM)
Low41 °F (Aug 17, 3:50 AM)27% (Aug 16, 4:20 PM)29.62 "Hg (Aug 28, 7:50 AM)
Average62 °F69%30.14 "Hg
* Reported Aug 15 8:20 AM — Aug 30 8:20 AM, Turku, Weather by CustomWeather, © 2015

Note: Actual official high and low records may vary slightly from our data, if they occured in-between our weather recording intervals... More about our weather records

Advertising

Turku weather history for previous 24 hours

 ConditionsComfort  
Time TempWeatherWind HumidityBarometerVisibility
8:20 AM
Sun, Aug 30
57 °FSunny.2 mph94%30.01 "Hg10 mi
7:50 AM52 °FSunny.2 mph94%30.01 "Hg10 mi
7:20 AM46 °FSunny.1 mph93%30.01 "Hg10 mi
6:50 AM45 °FClear.No wind93%30.01 "Hg10 mi
6:20 AM45 °FFog.No wind100%30.01 "Hg1 mi
5:50 AM45 °FFog.2 mph93%30.01 "Hg1 mi
5:20 AM45 °FFog.2 mph100%30.01 "Hg1 mi
4:50 AM46 °FFog.2 mph93%30.01 "Hg2 mi
4:20 AM46 °FCool.2 mph93%30.01 "Hg5 mi
3:50 AM46 °FPassing clouds.3 mph93%30.01 "Hg5 mi
3:20 AM46 °FPassing clouds.2 mph93%30.01 "HgN/A
2:50 AM46 °FClear.2 mph93%30.01 "Hg10 mi
2:20 AM46 °FPassing clouds.2 mph93%30.01 "HgN/A
1:50 AM46 °FPassing clouds.3 mph93%30.01 "HgN/A
1:20 AM48 °FPassing clouds.2 mph94%30.01 "HgN/A
12:20 AM46 °FFog.1 mph93%30.01 "Hg1 mi
11:50 PM
Sat, Aug 29
48 °FClear.2 mph94%30.01 "Hg10 mi
11:20 PM48 °FCool.2 mph100%29.98 "Hg6 mi
10:50 PM50 °FClear.No wind94%29.98 "Hg10 mi
10:20 PM52 °FClear.No wind88%29.98 "Hg10 mi
9:50 PM52 °FClear.No wind94%29.98 "Hg10 mi
9:20 PM55 °FSunny.1 mph82%29.98 "Hg10 mi
8:50 PM57 °FSunny.5 mph77%29.98 "Hg10 mi
8:20 PM61 °FSunny.5 mph68%29.98 "Hg10 mi
7:50 PM63 °FSunny.7 mph64%29.95 "Hg10 mi
7:20 PM64 °FPassing clouds.8 mph64%29.95 "HgN/A
6:50 PM64 °FPassing clouds.12 mph60%29.95 "HgN/A
6:20 PM64 °FPassing clouds.12 mph60%29.95 "HgN/A
5:50 PM64 °FPassing clouds.14 mph60%29.95 "HgN/A
5:20 PM66 °FPassing clouds.16 mph56%29.95 "HgN/A
4:50 PM66 °FPassing clouds.15 mph56%29.92 "HgN/A
4:20 PM66 °FScattered clouds.14 mph56%29.92 "HgN/A
3:50 PM64 °FScattered clouds.15 mph60%29.92 "HgN/A
3:20 PM64 °FPassing clouds.13 mph64%29.92 "HgN/A
2:50 PM66 °FPartly sunny.13 mph60%29.92 "HgN/A
2:20 PM64 °FPartly sunny.16 mph64%29.89 "HgN/A
1:50 PM66 °FScattered clouds.14 mph60%29.89 "HgN/A
12:50 PM64 °FPartly sunny.14 mph64%29.89 "HgN/A
12:20 PM64 °FPartly sunny.13 mph68%29.86 "HgN/A
11:50 AM64 °FBroken clouds.14 mph73%29.86 "HgN/A
10:50 AM64 °FPartly sunny.10 mph73%29.83 "HgN/A
10:20 AM63 °FPartly sunny.13 mph77%29.83 "HgN/A
9:50 AM61 °FPartly sunny.9 mph83%29.83 "HgN/A
Weather by CustomWeather, © 2015

See weather overviewHow to use our weather pages